Starlink 3939

decayed
NORAD ID: 52545 Int'l Des: 2022-051 Owner: SPXS Country: US Constellation: starlink
LEOCIRCULAR
Group

About Starlink 3939

Description loading...

Altitude History

Altitude vs Time

uPlot chart will show altitude changes over time

Two-Line Element Set

1 52545U 22051N 24146.53245641 .39558677 12380-4 24068-2 0 9998
2 52545 53.1915 147.2233 0002661 255.7492 200.5085 16.41464404113388
Epoch: May 25, 2024 • Age: 13727 hours

Current Status

Position data unavailable
Launch Date May 13, 2022
Age 3.5 years
Decay Date May 25, 2024
Type internet

Technical Details

Classification Payload
Mass 297.00 kg
Dry Mass 275.00 kg
Total Mass 297.00 kg
Length 0.20 m
Diameter 2.80 m
Span 9.00 m
Shape Box + pan
Manufacturer SPXS
Bus Type Starlink
Phase Status Unknown Transfer Status
Owner/State SPXS/US

Large Constellations

Loading constellations...